{"data":{"norad_id":45712,"intl_designator":"2020-035BH","name":"STARLINK-1434","alt_names":[],"object_type":"PAYLOAD","status":"ACTIVE","operator":null,"country":"US","launch_date":"2020-06-04","launch_site_code":"AFETR","launch_vehicle":null,"mission":null,"orbit_class":"UNKNOWN","rcs_meters":null,"size_class":null,"mass_kg":null,"dimensions":null,"purposes":["comms"],"wikipedia_slug":null,"has_3d_model":false,"image_url":null,"decayed_at":null,"tle_current":{"epoch":"2026-09-20T01:23:29.713056Z","epoch_age_seconds":56542,"freshness":"FRESH","line1":"1 45712U 20035BH  26263.05798279  .00039013  00000+0  88039-3 0  9991","line2":"2 45712  53.0461 188.3197 0004411  70.1243 290.0237 15.42856415349240","mean_motion":15.42856415,"eccentricity":0.0004411,"inclination_deg":53.0461,"raan_deg":188.3197,"arg_perigee_deg":70.1243,"mean_anomaly_deg":290.0237,"bstar":0.00088039,"rev_number":34924,"period_min":93.333377364218,"perigee_km":434.67740511066,"apogee_km":440.69032227661,"semimajor_km":6815.8208636936,"source":"CELESTRAK","updated_at":"2026-09-20T09:00:38.455329Z"}}}